Tracking 27126 objects as of 30-Mar-2023
HD Live streaming from Space Station
objects crossing your sky now

STARLINK-4763

Track STARLINK-4763 now!
10-day predictions
STARLINK-4763 is classified as:


NORAD ID: 53805
Int'l Code: 2022-111AJ
Perigee: 546.2 km
Apogee: 547.6 km
Inclination: 53.2 °
Period: 95.4 minutes
Semi major axis: 6917 km
RCS: Unknown
Launch date: September 11, 2022
Source: United States (US)
Launch site: AIR FORCE EASTERN TEST RANGE (AFETR)
Your satellite tracking list
Your tracking list is empty




NASA's NSSDC Master Catalog

Two Line Element Set (TLE):
1 53805U 22111AJ  23089.13693159 -.00000070  00000-0  13665-4 0  9990
2 53805  53.2173  37.5411 0001015  98.4405 261.6703 15.08837949 30846
Source of the keplerian elements: AFSPC